Probability
3 1 0 0 0 0 0 0 0 0 0 1 1 1 2 2 1 0 0 1 3 4 2 1 3 3 2 0 0 0 0 0 0 0 0 0 0 0 0 0 0 0 0 0 0 0 0 0 0
1 0 0 0 0 0 0 0 0 0 1 2 2 3 3 3 2 0 0 2 4 5 3 2 3 4 3 1 0 0 0 0 0 0 0 0 0 0 0 0 0 0 0 0 0 0 0 0 0
0 0 0 0 0 0 0 0 0 2 3 4 5 6 5 3 1 0 1 4 6 7 6 4 4 5 4 2 0 0 0 0 0 0 1 1 1 0 0 0 0 0 0 0 0 0 0 0 0
0 0 0 0 0 0 0 0 1 4 7 7 8 10 8 6 4 3 2 5 9 10 8 8 8 8 6 3 1 0 0 0 0 1 2 2 2 1 0 0 0 0 0 0 0 0 0 0 0
0 0 0 0 0 0 1 2 5 9 12 12 13 14 11 9 10 7 3 5 10 13 12 11 11 12 9 5 2 1 1 1 1 1 3 3 3 2 0 0 0 0 0 0 0 0 0 0 0
0 0 0 0 0 0 1 4 11 16 18 19 18 15 11 12 13 8 4 6 11 13 13 12 12 13 12 8 5 4 3 3 3 3 3 3 2 1 0 0 0 0 0 0 0 0 0 0 0
0 0 0 0 0 0 0 4 12 19 24 22 18 12 10 11 11 7 6 8 10 11 10 10 9 9 9 8 7 6 4 3 4 4 3 2 1 1 1 1 1 0 0 0 0 0 0 0 0
0 0 0 0 0 0 1 3 8 18 25 22 16 12 11 12 13 12 11 10 9 6 5 5 4 4 4 5 5 4 3 2 2 2 1 0 0 1 2 2 2 1 1 0 0 0 0 0 0
0 0 0 0 0 1 2 3 7 16 24 24 21 19 19 21 23 23 19 14 7 3 2 2 1 1 1 1 2 1 1 0 0 0 0 0 0 1 2 3 3 2 1 0 0 0 1 2 2
0 0 0 0 0 1 2 4 8 16 23 26 27 27 26 29 33 30 23 15 7 3 3 2 1 0 0 0 0 0 1 1 1 1 1 1 1 2 3 4 3 2 1 0 0 1 3 5 5
0 0 0 0 0 0 1 4 9 15 19 22 26 27 28 30 32 29 21 14 9 5 3 3 1 0 0 0 1 1 2 3 4 4 4 2 2 3 4 4 3 2 2 1 0 1 3 5 6
0 0 0 1 1 0 1 4 10 14 14 16 19 23 27 28 26 22 18 14 11 7 5 4 3 3 3 2 1 1 2 3 4 6 5 3 1 2 2 2 2 1 2 1 0 0 2 3 3
0 0 1 2 1 1 2 5 10 11 12 14 17 21 23 23 19 16 15 17 17 14 11 8 8 11 10 6 2 1 2 2 2 3 3 1 0 0 0 1 1 1 1 1 0 0 0 1 1
0 0 1 1 1 2 4 5 7 8 10 12 17 21 20 16 16 16 17 21 22 20 18 16 14 14 13 8 3 2 2 1 0 1 1 1 0 0 0 1 1 0 0 0 0 0 0 0 0
0 0 0 1 1 1 3 4 5 6 8 12 18 20 17 13 15 19 22 23 23 21 20 18 14 11 8 5 2 1 1 0 0 0 0 0 0 0 0 0 0 0 0 0 0 0 0 0 0
0 0 0 0 1 1 1 3 4 6 8 11 16 18 14 13 17 21 23 22 19 17 15 13 10 7 3 1 0 1 1 0 0 0 0 0 0 0 0 0 0 0 0 0 0 0 0 0 0
0 0 0 0 0 0 0 1 3 6 9 11 14 17 15 14 17 20 21 20 17 14 11 7 5 5 3 1 0 1 1 0 0 0 0 0 0 0 0 0 0 0 0 0 0 0 0 0 0
0 0 0 0 0 0 1 1 2 5 9 11 14 17 16 13 13 14 16 17 16 12 8 5 3 3 2 1 0 1 1 0 0 0 0 0 0 0 0 0 0 0 0 0 0 0 0 0 0
0 0 0 0 0 0 1 2 3 6 9 11 13 14 13 10 8 8 10 12 13 11 6 3 2 1 1 0 0 0 0 0 0 0 0 0 0 0 0 0 0 0 0 0 0 0 0 0 0
0 0 0 0 0 0 1 2 2 4 6 8 8 9 9 7 5 5 6 7 9 7 3 1 1 0 0 0 0 0 0 0 0 0 0 0 0 0 0 0 0 0 0 0 0 0 0 0 0
0 0 0 0 0 0 0 1 1 1 2 3 4 5 5 4 3 3 5 5 4 3 1 0 0 0 0 0 0 0 0 0 0 0 0 0 0 0 0 0 0 0 0 0 0 0 0 0 0
0 0 0 0 0 0 0 0 0 1 1 1 1 1 1 1 1 3 5 4 2 1 0 0 0 0 0 0 0 0 0 0 0 0 0 0 0 0 0 0 0 0 0 0 0 0 0 0 0
0 0 0 0 0 0 0 0 1 3 2 1 0 0 0 1 2 3 4 4 2 1 0 0 0 0 0 0 0 0 0 0 0 0 0 0 0 0 0 0 0 0 0 0 0 0 0 0 0
0 0 0 0 0 0 0 0 1 2 2 1 0 0 0 1 2 3 4 3 2 1 0 0 0 0 0 0 0 0 0 0 0 0 0 0 0 0 0 0 0 0 0 0 0 0 0 0 0
0 0 0 0 0 0 0 0 0 1 1 1 0 0 0 1 1 1 2 2 1 0 0 0 0 0 0 0 0 0 0 0 0 0 0 0 0 0 0 0 0 0 0 0 0 0 0 0 0
0 0 0 0 0 0 0 0 0 0 0 0 0 0 0 0 0 0 1 1 0 0 0 0 0 0 0 0 0 0 0 0 0 0 0 0 0 0 0 0 0 0 0 0 0 0 0 0 0
0 0 0 0 0 0 0 0 0 0 0 0 0 0 0 0 0 0 0 0 0 0 0 0 0 0 0 0 0 0 0 0 0 0 0 0 0 0 0 0 0 0 0 0 0 0 0 0 0
0 0 0 0 0 0 0 0 0 0 0 0 0 0 0 0 0 0 0 0 0 0 0 0 0 1 1 1 0 0 0 0 0 0 0 0 0 0 0 0 0 0 0 0 0 0 0 0 0
0 0 0 0 0 0 0 0 0 0 0 0 0 0 0 0 0 0 0 0 0 0 0 0 0 1 2 2 0 0 0 0 0 0 0 0 0 0 0 0 0 0 0 0 0 0 0 0 0
0 0 0 0 0 0 0 0 0 0 0 0 0 0 0 0 0 0 0 0 1 1 1 0 0 1 2 1 0 0 0 0 0 0 0 0 0 0 0 0 0 0 0 0 0 0 0 0 0
Wind_Speed
9 6 2 1 1 2 2 4 3 4 4 4 3 3 5 5 4 5 6 16 19 16 12 15 18 18 18 17 17 17 17 17 17 16 16 15 15 14 14 14 13 13 12 12 11 11 11 11 10
6 5 2 1 1 1 4 4 4 3 0 3 5 5 7 8 9 10 9 16 19 15 11 13 18 18 18 17 17 17 17 16 16 16 15 15 14 13 13 13 12 12 11 11 11 10 10 9 9
6 5 2 1 1 3 4 5 6 1 4 4 2 4 5 7 9 6 10 16 15 13 10 13 19 18 18 17 16 16 16 16 16 15 15 14 13 13 12 12 12 11 11 10 10 9 9 8 7
3 2 1 1 5 6 7 8 6 4 6 7 4 4 4 5 6 13 17 16 15 11 10 13 18 18 17 17 16 16 16 16 15 15 14 13 13 12 12 11 11 10 10 10 9 8 7 7 6
2 3 0 2 5 6 8 7 4 5 5 5 4 5 5 5 18 19 17 16 15 11 9 12 18 18 17 17 16 16 16 15 15 14 13 12 12 11 11 10 10 10 9 9 8 7 6 5 4
2 2 1 3 5 3 4 3 6 9 9 6 6 5 3 7 15 16 15 14 14 13 10 11 17 18 17 16 16 16 15 15 14 14 13 12 11 10 10 10 9 9 9 8 8 7 6 4 3
3 1 2 4 5 4 0 4 7 9 9 5 5 4 4 8 10 12 13 13 12 12 10 8 9 12 16 16 16 15 14 14 13 12 12 11 10 9 9 8 8 8 8 8 7 7 6 4 3
4 2 4 4 4 3 2 6 7 8 7 5 4 6 7 9 10 10 12 11 11 9 9 8 7 7 7 9 14 15 14 13 12 11 11 10 9 8 8 7 7 8 8 7 7 7 6 6 5
2 1 4 5 2 1 3 6 6 6 8 3 1 3 6 11 13 12 11 9 10 10 8 8 7 7 6 6 10 11 12 11 10 8 10 8 3 3 4 6 8 8 8 7 7 7 7 6 5
4 3 7 4 1 3 6 7 6 6 8 4 4 5 7 10 13 14 12 11 11 11 9 8 8 8 7 7 5 4 4 5 4 3 4 3 2 2 3 4 7 8 8 7 7 7 6 4 2
4 6 5 1 2 6 7 6 5 9 6 5 9 9 6 7 9 12 11 11 11 12 10 8 8 7 6 4 4 2 2 2 3 3 3 3 2 1 1 1 1 2 4 2 3 3 2 2 2
4 4 2 2 2 6 7 7 7 5 6 8 8 7 6 5 5 7 9 9 9 9 9 8 7 7 6 5 4 3 3 3 3 3 4 3 2 1 1 1 1 1 1 1 1 1 2 2 2
1 1 2 4 7 9 12 9 9 6 6 7 7 6 4 5 5 4 7 8 10 9 9 8 7 7 7 6 4 5 4 4 4 4 4 4 3 2 1 1 1 1 1 1 1 1 2 2 2
2 1 1 3 5 5 11 7 6 5 5 6 5 4 4 4 4 4 7 8 9 9 9 8 8 7 7 5 5 4 4 4 3 3 3 4 3 2 2 1 0 0 1 1 1 2 1 1 1
2 4 4 3 4 3 8 6 3 7 6 5 5 5 3 3 5 7 9 9 9 9 9 8 7 7 7 6 5 4 4 4 3 3 4 4 3 3 2 1 1 1 1 0 0 1 0 1 1
4 4 3 4 2 1 5 3 4 5 6 4 5 6 5 4 6 7 9 10 9 10 8 7 8 7 6 5 5 4 4 4 4 3 3 5 4 4 3 2 1 1 1 1 1 1 1 1 1
3 2 3 3 1 2 4 3 4 3 5 4 6 7 6 4 4 6 8 9 8 9 8 8 7 6 5 5 4 4 4 4 3 3 3 4 4 4 3 2 1 2 2 2 1 1 1 1 2
5 3 3 3 1 3 2 2 3 4 5 5 6 7 7 7 6 6 7 9 9 8 8 8 7 6 5 4 4 3 3 3 3 3 3 4 3 4 4 3 3 3 3 2 2 1 1 1 1
6 3 3 3 3 3 2 2 3 3 3 4 4 6 8 7 5 5 6 8 9 7 7 7 7 5 4 3 3 3 2 2 2 2 4 4 4 4 4 3 3 3 2 2 2 1 2 2 2
3 3 2 1 2 4 2 1 1 3 4 5 6 6 7 6 5 5 6 6 7 7 6 6 6 5 5 3 3 3 3 2 2 2 2 3 4 4 4 3 2 2 2 3 3 3 2 2 2
1 4 4 4 3 4 4 2 1 2 2 3 5 5 6 10 10 10 9 7 7 7 8 8 7 6 5 5 3 3 3 3 2 1 1 1 2 3 4 4 3 2 2 2 2 2 2 1 2
1 3 5 6 5 1 2 1 4 4 3 5 6 7 8 9 9 10 10 9 9 8 8 7 7 6 5 5 5 5 4 3 2 2 1 0 1 2 3 4 4 3 2 2 1 2 1 1 1
4 4 4 4 5 3 2 1 5 3 5 8 10 10 10 10 11 12 11 10 10 9 8 7 7 6 6 6 6 6 4 3 2 1 1 0 1 0 2 3 3 3 2 2 1 1 1 1 1
8 5 5 6 5 3 1 1 5 6 9 10 11 12 12 12 12 11 11 9 8 8 8 8 8 6 6 6 6 7 6 4 3 2 1 0 1 1 1 3 3 2 2 1 1 1 0 1 1
5 5 4 6 5 2 3 2 8 8 8 11 13 13 13 13 12 11 11 11 10 10 10 9 9 7 7 7 6 6 6 6 4 3 2 2 1 1 1 2 2 2 2 2 1 1 1 1 2
2 7 6 3 3 3 3 4 8 7 6 8 10 11 12 12 12 13 13 13 13 13 11 10 10 8 7 7 6 6 6 4 3 4 3 3 2 2 2 2 2 2 2 2 1 1 2 2 2
1 1 6 7 3 1 3 6 8 2 3 6 9 11 13 14 14 14 14 13 13 12 12 12 11 8 8 8 7 6 6 5 5 4 3 3 2 2 3 2 2 1 2 2 2 2 3 2 3
3 4 5 5 5 2 3 5 6 5 6 7 9 12 13 14 14 14 14 13 11 11 10 11 11 10 8 8 7 6 6 6 5 4 4 4 3 3 3 2 2 2 2 2 2 3 3 3 4
1 1 4 4 5 6 4 8 9 11 10 10 12 13 14 15 15 14 12 11 10 10 10 10 10 8 8 8 7 7 6 6 5 5 4 4 3 4 4 3 3 3 3 3 3 4 4 4 4
2 3 5 4 3 5 5 9 7 11 11 11 13 13 13 14 13 12 12 11 11 11 11 10 10 9 9 8 7 7 6 6 5 5 4 4 4 4 4 4 4 4 4 4 4 5 4 4 5
Wind_Direction
167 166 173 87 52 40 282 249 226 304 335 342 31 95 125 95 127 132 124 135 133 138 143 141 139 137 135 133 131 130 128 127 126 125 124 122 121 119 118 116 114 112 110 108 107 105 103 102 101
157 173 166 56 89 34 280 264 255 241 298 21 26 71 77 69 85 102 115 134 133 135 138 140 139 138 138 136 135 134 133 132 132 132 131 129 128 126 123 121 119 116 114 113 111 109 106 104 102
180 187 138 120 180 192 241 258 259 161 42 14 360 13 57 100 107 105 129 133 128 129 133 142 140 139 139 138 138 137 136 136 135 135 135 134 133 131 129 127 125 123 120 118 116 113 110 107 102
167 119 56 169 239 230 215 225 215 139 50 33 65 37 42 84 108 126 134 132 127 128 131 140 138 137 137 138 139 139 139 139 138 138 139 139 139 137 135 132 132 130 128 126 124 121 118 113 104
109 112 146 271 251 239 223 224 182 90 87 51 66 91 49 62 115 128 134 134 132 130 132 137 136 136 137 138 139 140 140 141 141 142 142 143 143 142 142 140 139 139 139 137 133 132 129 128 116
85 112 110 277 276 262 233 192 123 103 108 92 84 91 84 123 126 137 139 138 135 135 134 136 137 137 138 139 140 142 143 145 146 147 148 149 149 149 148 146 148 147 148 148 147 147 149 150 146
151 154 238 268 291 306 204 124 118 124 116 123 130 109 133 143 137 140 140 138 136 137 135 132 137 138 140 141 143 144 146 147 149 150 151 153 154 155 156 155 158 160 160 162 165 168 172 180 189
175 102 310 301 308 335 59 93 88 110 107 122 128 146 162 159 139 132 132 134 136 138 138 138 137 137 140 144 148 150 150 152 154 155 158 161 163 166 171 171 175 175 176 177 182 188 192 200 212
182 81 271 267 265 251 111 104 87 80 89 92 121 146 144 136 126 124 129 135 143 145 148 148 146 146 145 149 156 154 154 157 158 161 165 165 165 173 187 192 190 188 187 190 196 206 211 211 223
149 183 239 239 204 137 105 98 121 104 87 83 102 108 112 121 135 138 147 156 157 157 162 160 157 157 158 161 144 147 150 151 153 161 158 148 155 187 189 200 198 199 197 199 207 216 221 217 224
190 212 242 319 111 115 110 87 97 125 112 147 153 146 129 131 146 148 154 160 163 161 163 161 161 161 163 142 144 148 137 139 144 140 133 126 117 128 153 160 197 200 198 201 213 218 217 203 207
213 249 208 124 86 95 106 116 97 101 138 150 150 145 139 139 143 144 154 155 149 153 149 143 141 142 139 128 136 138 131 132 134 132 125 111 102 98 109 133 149 168 190 203 212 204 221 222 224
206 252 93 106 91 99 102 105 112 105 118 123 125 107 128 157 138 147 152 143 143 142 135 134 129 126 124 120 125 122 123 125 128 123 120 122 125 123 113 128 168 203 194 199 218 222 232 234 239
295 300 59 90 95 97 108 111 108 139 145 138 127 136 153 151 139 147 152 140 141 139 135 135 126 122 120 121 121 127 129 131 126 119 121 115 115 111 100 90 80 293 236 224 225 231 235 249 250
359 354 354 24 75 117 106 81 121 162 160 147 153 164 161 183 149 159 159 151 151 142 135 131 126 122 121 122 124 125 128 126 123 125 123 114 105 98 95 83 63 352 324 308 340 335 10 320 302
6 9 331 318 59 123 105 143 201 171 155 154 161 154 169 194 174 173 160 153 145 136 133 132 128 125 123 120 120 123 123 122 129 131 122 116 111 107 98 86 62 18 39 35 43 43 39 357 330
357 288 276 298 23 102 94 179 215 182 151 162 157 149 159 177 197 176 158 141 135 134 131 126 127 130 129 125 123 124 121 124 133 131 125 124 119 110 104 94 68 50 52 36 29 48 57 1 332
257 235 250 244 241 105 104 208 197 179 170 169 161 154 161 178 190 167 152 138 132 131 128 130 129 134 130 119 106 95 98 113 127 137 142 136 125 115 108 93 64 57 54 31 24 20 16 8 331
238 198 224 239 187 116 152 186 200 181 177 171 174 167 173 175 175 156 147 139 131 130 132 138 136 142 132 120 118 117 127 137 136 159 152 146 137 123 113 101 79 69 65 37 21 26 19 358 0
221 155 199 265 139 118 127 129 192 179 190 187 184 184 176 164 155 156 148 149 145 146 146 146 146 149 145 139 141 143 139 135 138 136 142 153 146 142 136 124 112 91 68 40 38 48 41 357 22
177 164 183 171 111 72 97 35 271 254 193 200 202 194 181 173 169 170 168 166 160 161 165 161 159 156 153 142 119 94 77 67 64 75 114 184 160 153 145 140 132 116 101 72 47 68 85 16 348
207 163 140 132 114 73 92 229 262 224 226 215 207 197 190 183 175 175 172 174 176 177 172 163 163 158 153 141 130 129 130 135 166 171 182 240 167 163 161 150 141 131 117 104 85 103 108 103 353
149 110 87 99 113 83 33 105 273 199 216 216 209 202 198 189 181 183 183 183 181 178 174 170 165 159 154 145 138 128 128 142 143 122 108 4 345 53 150 144 132 129 126 125 97 89 96 143 177
133 87 57 49 67 52 297 171 269 216 208 203 205 200 196 191 189 189 188 182 181 179 176 170 164 164 160 151 143 141 143 145 132 121 116 13 13 36 97 131 134 142 149 165 191 196 219 217 226
115 93 29 4 17 280 273 222 251 234 216 192 193 195 193 190 189 188 186 184 187 186 183 175 168 168 166 154 151 151 150 147 147 153 153 141 110 102 142 135 149 162 192 209 204 213 250 248 248
204 137 156 199 214 269 313 267 262 256 226 194 186 187 188 188 190 191 191 189 191 191 184 175 173 170 168 160 160 158 152 145 147 155 157 158 167 180 175 153 166 195 218 228 214 225 246 241 248
133 173 167 131 120 118 279 291 302 282 167 178 181 182 190 191 191 194 193 191 189 186 183 177 172 169 169 167 163 162 160 156 163 166 158 159 172 176 161 160 177 219 237 244 235 236 252 252 250
166 168 89 107 140 196 274 269 247 232 208 192 186 190 194 192 192 193 192 190 186 180 176 169 166 168 168 166 168 168 168 168 169 164 172 181 193 191 187 203 216 240 255 255 241 248 254 255 258
266 116 117 125 153 152 211 258 225 208 206 199 200 195 194 195 194 193 189 183 173 167 165 165 165 162 165 168 166 162 171 173 171 175 189 194 201 201 204 215 226 240 250 252 245 249 252 250 260
203 188 142 143 221 167 175 258 247 199 203 200 205 201 197 195 193 186 176 167 164 165 167 167 168 169 173 171 169 171 174 173 177 189 201 198 203 210 212 216 225 238 243 244 242 250 250 241 248